Weather History for KMLS - November, 2013

Change the Weather History Date:

Saturday, November 2, 2013

  Actual Average Record
Temperature  
Mean Temperature 43 °F 39 °F  
Max Temperature 58 °F 51 °F 72 °F (2010)
Min Temperature 28 °F 27 °F -4 °F (1995)
Degree Days  
Heating Degree Days 22 26  
Month to date heating degree days 42 51  
Since 1 July heating degree days 747 862  
Cooling Degree Days 0 0  
Month to date cooling degree days 0 0  
Year to date cooling degree days 877 730  
Moisture  
Dew Point 29 °F    
Average Humidity 64    
Maximum Humidity 92    
Minimum Humidity 36    
Precipitation  
Precipitation 0.00 in 0.01 in 0.09 in (1987)
Month to date precipitation T 0.03  
Year to date precipitation 16.40 11.79  
Sea Level Pressure  
Sea Level Pressure 29.87 in    
Wind  
Wind Speed 8 mph (SE)    
Max Wind Speed 16 mph    
Max Gust Speed 20 mph    
Visibility 10 miles    
Events      
T = Trace of Precipitation, MM = Missing Value Source: NWS Daily Summary

Daily Weather History Graph

Daily Weather History Graph

Search for Another Location

Airport or City:

Trip Planner

Search our weather history database for the weather conditions in past years. The results will help you decide how hot, cold, wet, or windy it might be!

Date:

Astronomy

Nov. 02, 2013 Rise Set
Actual Time 7:46 AM MDT 5:46 PM MDT
Civil Twilight 7:15 AM MDT 6:18 PM MDT
Nautical Twilight 6:39 AM MDT 6:53 PM MDT
Astronomical Twilight 6:04 AM MDT 7:28 PM MDT
Moon 6:44 AM MDT 5:20 PM MDT
Length of Visible Light 11h 02m
Length of Day
9h 59m
Waning Crescent, 1% of the Moon is Illuminated
Nov 2
Waning Crescent
Nov 3
New
Nov 9
First Quarter
Nov 17
Full
Nov 25
Last Quarter

Hourly Weather History & Observations

Time (MDT) Temp. Windchill Dew Point Humidity Pressure Visibility Wind Dir Wind Speed Gust Speed Precip Events Conditions
12:53 AM 33.1 °F 27.7 °F 26.1 °F 75% 30.11 in 10.0 mi South 5.8 mph - N/A   Partly Cloudy
1:53 AM 33.1 °F 26.9 °F 26.1 °F 75% 30.11 in 10.0 mi SSE 6.9 mph - N/A   Clear
2:53 AM 32.0 °F 24.8 °F 26.1 °F 79% 30.09 in 10.0 mi SE 8.1 mph - N/A   Partly Cloudy
3:53 AM 32.0 °F 26.4 °F 26.1 °F 79% 30.09 in 10.0 mi SSE 5.8 mph - N/A   Partly Cloudy
4:53 AM 30.0 °F 24.1 °F 25.0 °F 82% 30.09 in 10.0 mi SSE 5.8 mph - N/A   Clear
5:53 AM 28.0 °F 20.8 °F 25.0 °F 88% 30.08 in 10.0 mi SSE 6.9 mph - N/A   Clear
6:53 AM 28.9 °F 21.9 °F 26.1 °F 89% 30.08 in 10.0 mi SSE 6.9 mph - N/A   Clear
7:53 AM 28.0 °F 20.8 °F 25.0 °F 88% 30.06 in 10.0 mi SSE 6.9 mph - N/A   Clear
8:53 AM 32.0 °F 23.6 °F 28.0 °F 85% 30.05 in 10.0 mi SSE 10.4 mph - N/A   Clear
9:53 AM 37.9 °F 32.7 °F 28.9 °F 70% 30.03 in 10.0 mi SE 6.9 mph - N/A   Clear
10:53 AM 43.0 °F 38.2 °F 30.0 °F 60% 29.99 in 10.0 mi SE 8.1 mph - N/A   Clear
11:53 AM 46.9 °F - 32.0 °F 56% 29.94 in 10.0 mi SE 8.1 mph - N/A   Mostly Cloudy
12:53 PM 48.0 °F - 32.0 °F 54% 29.88 in 10.0 mi NE 9.2 mph - N/A   Scattered Clouds
1:53 PM 54.0 °F - 33.1 °F 45% 29.81 in 10.0 mi ESE 8.1 mph - N/A   Clear
2:53 PM 55.9 °F - 30.9 °F 39% 29.77 in 10.0 mi SE 13.8 mph - N/A   Scattered Clouds
3:53 PM 57.0 °F - 30.9 °F 37% 29.70 in 10.0 mi ESE 10.4 mph - N/A   Clear
4:53 PM 55.9 °F - 33.1 °F 42% 29.69 in 10.0 mi ESE 8.1 mph - N/A   Clear
5:53 PM 54.0 °F - 32.0 °F 43% 29.65 in 10.0 mi ESE 11.5 mph - N/A   Clear
6:53 PM 52.0 °F - 30.0 °F 43% 29.64 in 10.0 mi ESE 10.4 mph - N/A   Clear
7:53 PM 48.9 °F - 30.0 °F 48% 29.62 in 10.0 mi ESE 8.1 mph - N/A   Clear
8:53 PM 46.9 °F - 30.0 °F 52% 29.59 in 10.0 mi SE 8.1 mph - N/A   Clear
9:53 PM 39.9 °F - 28.9 °F 65% 29.59 in 10.0 mi Calm Calm - N/A   Clear
10:53 PM 41.0 °F - 28.9 °F 62% 29.57 in 10.0 mi Calm Calm - N/A   Clear
11:53 PM 37.0 °F 33.3 °F 28.9 °F 73% 29.55 in 10.0 mi South 4.6 mph - N/A   Clear